Meteo pe oră la Al-Ladikija

Astăzi, 24 Ianuarie, Duminică

Timp Temperatura Precipitaţii Vânt Presiune Umiditate
00:00 +6°C° 0 mm 5 m/s 764 mmHg 60%
01:00 +5°C° 0 mm 5 m/s 764 mmHg 60%
02:00 +5°C° 0 mm 5 m/s 764 mmHg 61%
03:00 +5°C° 0 mm 5 m/s 764 mmHg 61%
04:00 +5°C° 0 mm 5 m/s 764 mmHg 61%
05:00 +5°C° 0 mm 5 m/s 763 mmHg 61%
06:00 +5°C° 0 mm 5 m/s 764 mmHg 61%
07:00 +5°C° 0 mm 5 m/s 764 mmHg 61%
08:00 +5°C° 0 mm 6 m/s 764 mmHg 60%
09:00 +7°C° 0 mm 5 m/s 764 mmHg 58%
10:00 +8°C° 0 mm 5 m/s 764 mmHg 55%
11:00 +11°C° 0 mm 4 m/s 764 mmHg 53%
12:00 +11°C° 0 mm 4 m/s 763 mmHg 52%
13:00 +12°C° 0 mm 4 m/s 763 mmHg 52%
14:00 +12°C° 0 mm 4 m/s 763 mmHg 51%
15:00 +11°C° 0 mm 4 m/s 763 mmHg 53%
16:00 +9°C° 0 mm 5 m/s 763 mmHg 55%
17:00 +8°C° 0 mm 5 m/s 763 mmHg 57%
18:00 +8°C° 0 mm 5 m/s 763 mmHg 58%
19:00 +8°C° 0 mm 4 m/s 764 mmHg 58%
20:00 +7°C° 0 mm 4 m/s 764 mmHg 59%
21:00 +7°C° 0 mm 4 m/s 764 mmHg 59%
22:00 +7°C° 0 mm 4 m/s 764 mmHg 59%
23:00 +7°C° 0 mm 5 m/s 764 mmHg 60%

Mâine, 25 Ianuarie, Luni

Timp Temperatura Precipitaţii Vânt Presiune Umiditate
00:00 +6°C° 0 mm 5 m/s 763 mmHg 60%
01:00 +6°C° 0 mm 5 m/s 763 mmHg 61%
02:00 +6°C° 0 mm 5 m/s 763 mmHg 61%
03:00 +6°C° 0 mm 5 m/s 763 mmHg 61%
04:00 +5°C° 0 mm 4 m/s 763 mmHg 62%
05:00 +5°C° 0 mm 4 m/s 763 mmHg 62%
06:00 +6°C° 0 mm 4 m/s 763 mmHg 62%
07:00 +6°C° 0 mm 4 m/s 764 mmHg 62%
08:00 +6°C° 0 mm 4 m/s 764 mmHg 62%
09:00 +8°C° 0 mm 4 m/s 764 mmHg 59%
10:00 +11°C° 0 mm 3 m/s 764 mmHg 56%
11:00 +12°C° 0 mm 3 m/s 764 mmHg 53%
12:00 +14°C° 0 mm 2 m/s 763 mmHg 51%
13:00 +15°C° 0 mm 2 m/s 763 mmHg 50%
14:00 +16°C° 0 mm 2 m/s 763 mmHg 48%
15:00 +14°C° 0 mm 2 m/s 763 mmHg 53%
16:00 +13°C° 0 mm 2 m/s 763 mmHg 57%
17:00 +10°C° 0 mm 2 m/s 763 mmHg 61%
18:00 +10°C° 0 mm 2 m/s 763 mmHg 61%
19:00 +10°C° 0 mm 3 m/s 764 mmHg 60%
20:00 +9°C° 0 mm 3 m/s 764 mmHg 60%
21:00 +9°C° 0 mm 3 m/s 764 mmHg 60%
22:00 +9°C° 0 mm 3 m/s 764 mmHg 59%
23:00 +9°C° 0 mm 3 m/s 764 mmHg 59%

Poimâine, 26 Ianuarie, Marţi

Timp Temperatura Precipitaţii Vânt Presiune Umiditate
00:00 +9°C° 0 mm 3 m/s 764 mmHg 59%
01:00 +9°C° 0 mm 3 m/s 764 mmHg 60%
02:00 +9°C° 0 mm 3 m/s 764 mmHg 60%
03:00 +9°C° 0 mm 3 m/s 763 mmHg 61%
04:00 +8°C° 0 mm 3 m/s 763 mmHg 61%
05:00 +8°C° 0 mm 3 m/s 763 mmHg 61%
06:00 +9°C° 0 mm 3 m/s 763 mmHg 62%
07:00 +8°C° 0 mm 4 m/s 764 mmHg 62%
08:00 +8°C° 0 mm 4 m/s 764 mmHg 63%
09:00 +11°C° 0 mm 3 m/s 764 mmHg 60%
10:00 +12°C° 0 mm 3 m/s 763 mmHg 57%
11:00 +13°C° 0 mm 3 m/s 763 mmHg 54%
12:00 +14°C° 0 mm 3 m/s 763 mmHg 54%
13:00 +14°C° 0 mm 3 m/s 762 mmHg 53%
14:00 +16°C° 0 mm 3 m/s 762 mmHg 53%
15:00 +14°C° 0 mm 3 m/s 762 mmHg 55%
16:00 +13°C° 0 mm 4 m/s 762 mmHg 57%
17:00 +12°C° 0 mm 4 m/s 761 mmHg 60%
18:00 +12°C° 0 mm 4 m/s 761 mmHg 59%
19:00 +11°C° 0 mm 4 m/s 762 mmHg 57%
20:00 +10°C° 0 mm 5 m/s 762 mmHg 56%
21:00 +10°C° 0 mm 5 m/s 761 mmHg 56%
22:00 +10°C° 0 mm 5 m/s 761 mmHg 56%
23:00 +10°C° 0 mm 5 m/s 761 mmHg 56%

27 Ianuarie, Miercuri

Timp Temperatura Precipitaţii Vânt Presiune Umiditate
00:00 +10°C° 0 mm 5 m/s 760 mmHg 58%
01:00 +9°C° 0 mm 5 m/s 760 mmHg 59%
02:00 +9°C° 0 mm 6 m/s 759 mmHg 61%
03:00 +9°C° 0 mm 5 m/s 758 mmHg 62%
04:00 +9°C° 0 mm 5 m/s 758 mmHg 63%
05:00 +8°C° 0 mm 5 m/s 757 mmHg 64%
06:00 +8°C° 0 mm 5 m/s 757 mmHg 64%
07:00 +8°C° 0 mm 6 m/s 756 mmHg 64%
08:00 +9°C° 0 mm 6 m/s 756 mmHg 64%
09:00 +10°C° 0 mm 5 m/s 756 mmHg 62%
10:00 +12°C° 0 mm 5 m/s 755 mmHg 59%
11:00 +14°C° 0 mm 4 m/s 755 mmHg 56%
12:00 +15°C° 0 mm 5 m/s 754 mmHg 55%
13:00 +15°C° 0 mm 5 m/s 753 mmHg 54%
14:00 +16°C° 0 mm 5 m/s 753 mmHg 52%
15:00 +15°C° 0.4 mm 6 m/s 752 mmHg 61%
16:00 +13°C° 0.4 mm 8 m/s 752 mmHg 69%
17:00 +12°C° 0.4 mm 9 m/s 752 mmHg 78%
18:00 +12°C° 1.8 mm 10 m/s 752 mmHg 82%
19:00 +12°C° 1.8 mm 11 m/s 752 mmHg 86%
20:00 +12°C° 1.8 mm 13 m/s 751 mmHg 90%
21:00 +12°C° 1.1 mm 12 m/s 752 mmHg 88%
22:00 +12°C° 1.1 mm 12 m/s 752 mmHg 86%
23:00 +12°C° 1.1 mm 12 m/s 752 mmHg 84%

28 Ianuarie, Joi

Timp Temperatura Precipitaţii Vânt Presiune Umiditate
00:00 +12°C° 0.3 mm 11 m/s 752 mmHg 82%
01:00 +12°C° 0.3 mm 11 m/s 752 mmHg 81%
02:00 +12°C° 0.3 mm 11 m/s 752 mmHg 79%
03:00 +11°C° 0.3 mm 11 m/s 752 mmHg 80%
04:00 +11°C° 0.3 mm 10 m/s 752 mmHg 80%
05:00 +11°C° 0.3 mm 10 m/s 752 mmHg 80%
06:00 +11°C° 0.7 mm 11 m/s 752 mmHg 80%
07:00 +11°C° 0.7 mm 11 m/s 752 mmHg 81%
08:00 +11°C° 0.7 mm 11 m/s 752 mmHg 81%
09:00 +11°C° 0.3 mm 11 m/s 752 mmHg 76%
10:00 +11°C° 0.3 mm 11 m/s 752 mmHg 72%
11:00 +12°C° 0.3 mm 12 m/s 753 mmHg 67%
12:00 +12°C° 0.1 mm 12 m/s 752 mmHg 65%
13:00 +12°C° 0.1 mm 13 m/s 752 mmHg 62%
14:00 +10°C° 0.1 mm 13 m/s 752 mmHg 60%
15:00 +10°C° 0.5 mm 12 m/s 752 mmHg 66%
16:00 +9°C° 0.5 mm 12 m/s 753 mmHg 73%
17:00 +8°C° 0.5 mm 11 m/s 753 mmHg 80%
18:00 +8°C° 0.6 mm 10 m/s 753 mmHg 79%
19:00 +8°C° 0.6 mm 10 m/s 754 mmHg 78%
20:00 +7°C° 0.6 mm 9 m/s 754 mmHg 77%

29 Ianuarie, Vineri

Timp Temperatura Precipitaţii Vânt Presiune Umiditate
Arată mai mult

Formular de consimțământ

Meteoprog și furnizorii noștri de servicii pot stoca și accesa date personale, precum cookies, identificatori de dispozitiv sau alte tehnologii similare pe dispozitivul dumneavoastră și procesa astfel de date pentru a personaliza conținutul și reclamele, dar și pentru a oferi caracteristici de social media și pentru a analiza traficul.

  • Stocarea și/sau accesarea informațiilor pe dispozitivul dumneavoastră

    Cookies, identificatori de dispozitiv sau alte informații pot fi stocate sau accesate pe dispozitiv în scopurile indicate mai sus.

  • Reclame și conținut personalizat, evaluarea reclamelor și a conținutului, informații despre audiențe și dezvoltarea produselor

    Reclamele și conținutul pot fi personalizate pe baza unui profil. Pot fi adăugate date suplimentare pentru a personaliza mai bine reclamele și conținutul. Performanța reclamelor și conținutului poate fi măsurată. Pot fi obținute informații despre utilizatorii care au văzut reclamele și conținutul. Aceste date pot fi utilizate pentru a dezvolta sau îmbunătăți experiența utilizatorilor, sistemele și software-ul.

Dând clic pe ‘Sunt de acord’, permiteți utilizarea cookie-urilor menționate, a identificatorilor de dispozitiv, balizelor web sau altor tehnologii similare. Setările pot fi modificate din browser-ul dispozitivului dumneavoastră.

În anumite scopuri, interesele legitime pot prima asupra consimțământului. Puteți citi mai multe informații în acest sens în Politica privind Confidențialitatea Datelor și Cookie.